timestamp,wind_dir_avg,wind_spd_max_dir,wind_spd_avg,wind_spd_gust,battery_voltage,lat,long
2018-05-12 00:00:00+00:00,248.0,248.0,7.72,8.74,,47.59359,-54.27349
2018-05-12 00:10:00+00:00,248.0,247.0,7.58,8.59,,47.59359,-54.27349
2018-05-12 00:20:00+00:00,252.0,254.0,7.38,7.98,,47.59359,-54.27349
2018-05-12 00:30:00+00:00,249.0,254.0,6.9,7.58,,47.59359,-54.27349
2018-05-12 00:40:00+00:00,250.0,241.0,6.23,7.49,,47.59359,-54.27349
2018-05-12 00:50:00+00:00,250.0,253.0,5.75,6.76,,47.59359,-54.27349
2018-05-12 01:00:00+00:00,256.0,255.0,6.59,7.14,,47.59359,-54.27349
2018-05-12 01:10:00+00:00,255.0,254.0,5.92,6.45,,47.59359,-54.27349
2018-05-12 01:20:00+00:00,253.0,252.0,6.26,7.08,,47.59359,-54.27349
2018-05-12 01:30:00+00:00,274.0,282.0,5.47,6.86,,47.59359,-54.27349
2018-05-12 01:40:00+00:00,288.0,289.0,6.44,9.19,,47.59359,-54.27349
2018-05-12 01:50:00+00:00,289.0,291.0,6.99,7.8,,47.59359,-54.27349
2018-05-12 02:00:00+00:00,296.0,300.0,8.05,9.59,,47.59359,-54.27349
2018-05-12 02:10:00+00:00,297.0,303.0,6.95,8.08,,47.59359,-54.27349
2018-05-12 02:20:00+00:00,305.0,307.0,7.56,8.13,,47.59359,-54.27349
2018-05-12 02:30:00+00:00,309.0,304.0,6.51,7.56,,47.59359,-54.27349
2018-05-12 02:40:00+00:00,319.0,318.0,7.33,8.42,,47.59359,-54.27349
2018-05-12 02:50:00+00:00,306.0,315.0,7.07,8.4,,47.59359,-54.27349
2018-05-12 03:00:00+00:00,307.0,301.0,6.12,6.91,,47.59359,-54.27349
2018-05-12 03:10:00+00:00,310.0,307.0,6.48,7.22,,47.59359,-54.27349
2018-05-12 03:20:00+00:00,314.0,314.0,7.31,8.71,,47.59359,-54.27349
2018-05-12 03:30:00+00:00,297.0,299.0,5.69,6.34,,47.59359,-54.27349
2018-05-12 03:40:00+00:00,293.0,294.0,6.81,8.12,,47.59359,-54.27349
2018-05-12 03:50:00+00:00,294.0,299.0,6.87,8.17,,47.59359,-54.27349
2018-05-12 04:00:00+00:00,282.0,278.0,6.81,7.98,,47.59359,-54.27349
2018-05-12 04:10:00+00:00,296.0,299.0,6.66,7.63,,47.59359,-54.27349
2018-05-12 04:20:00+00:00,288.0,288.0,5.96,7.01,,47.59359,-54.27349
2018-05-12 04:30:00+00:00,284.0,283.0,6.51,7.39,,47.59359,-54.27349
2018-05-12 04:40:00+00:00,282.0,283.0,6.31,7.28,,47.59359,-54.27349
2018-05-12 04:50:00+00:00,278.0,279.0,6.11,6.59,,47.59359,-54.27349
2018-05-12 05:00:00+00:00,274.0,278.0,5.76,6.71,,47.59359,-54.27349
2018-05-12 05:10:00+00:00,276.0,283.0,6.39,7.18,,47.59359,-54.27349
2018-05-12 05:20:00+00:00,277.0,274.0,6.53,7.73,,47.59359,-54.27349
2018-05-12 05:30:00+00:00,272.0,285.0,5.94,7.27,,47.59359,-54.27349
2018-05-12 05:40:00+00:00,276.0,276.0,6.1,6.7,,47.59359,-54.27349
2018-05-12 05:50:00+00:00,269.0,269.0,6.34,7.04,,47.59359,-54.27349
2018-05-12 06:00:00+00:00,275.0,275.0,5.87,7.75,,47.59359,-54.27349
2018-05-12 06:10:00+00:00,285.0,282.0,7.33,8.82,,47.59359,-54.27349
2018-05-12 06:20:00+00:00,291.0,288.0,6.89,8.31,,47.59359,-54.27349
2018-05-12 06:30:00+00:00,292.0,294.0,5.67,6.67,,47.59359,-54.27349
2018-05-12 06:40:00+00:00,292.0,294.0,7.16,8.35,,47.59359,-54.27349
2018-05-12 06:50:00+00:00,293.0,293.0,6.84,7.56,,47.59359,-54.27349
2018-05-12 07:00:00+00:00,297.0,296.0,6.64,7.32,,47.59359,-54.27349
2018-05-12 07:10:00+00:00,293.0,287.0,8.16,9.59,,47.59359,-54.27349
2018-05-12 07:20:00+00:00,297.0,301.0,7.97,8.62,,47.59359,-54.27349
2018-05-12 07:30:00+00:00,298.0,297.0,8.33,9.19,,47.59359,-54.27349
2018-05-12 07:40:00+00:00,301.0,304.0,8.71,10.4,,47.59359,-54.27349
2018-05-12 07:50:00+00:00,294.0,284.0,6.96,7.88,,47.59359,-54.27349
2018-05-12 08:00:00+00:00,288.0,288.0,5.99,6.82,,47.59359,-54.27349
2018-05-12 08:10:00+00:00,289.0,288.0,5.92,6.97,,47.59359,-54.27349
2018-05-12 08:20:00+00:00,297.0,301.0,7.57,8.53,,47.59359,-54.27349
2018-05-12 08:30:00+00:00,287.0,290.0,7.06,8.24,,47.59359,-54.27349
2018-05-12 08:40:00+00:00,285.0,285.0,6.39,7.18,,47.59359,-54.27349
2018-05-12 08:50:00+00:00,281.0,286.0,6.76,7.49,,47.59359,-54.27349
2018-05-12 09:00:00+00:00,279.0,282.0,6.18,6.97,,47.59359,-54.27349
2018-05-12 09:10:00+00:00,276.0,278.0,6.81,8.19,,47.59359,-54.27349
2018-05-12 09:20:00+00:00,277.0,289.0,6.43,7.06,,47.59359,-54.27349
2018-05-12 09:30:00+00:00,273.0,272.0,6.03,7.01,,47.59359,-54.27349
2018-05-12 09:40:00+00:00,267.0,265.0,5.45,6.13,,47.59359,-54.27349
2018-05-12 09:50:00+00:00,280.0,269.0,5.7,6.88,,47.59359,-54.27349
2018-05-12 10:00:00+00:00,282.0,283.0,6.02,6.68,,47.59359,-54.27349
2018-05-12 10:10:00+00:00,285.0,284.0,7.06,7.85,,47.59359,-54.27349
2018-05-12 10:20:00+00:00,285.0,286.0,6.87,7.89,,47.59359,-54.27349
2018-05-12 10:30:00+00:00,288.0,293.0,7.13,9.08,,47.59359,-54.27349
2018-05-12 10:40:00+00:00,299.0,293.0,6.57,7.72,,47.59359,-54.27349
2018-05-12 10:50:00+00:00,296.0,289.0,7.77,9.6,,47.59359,-54.27349
2018-05-12 11:00:00+00:00,298.0,298.0,7.24,8.12,,47.59359,-54.27349
2018-05-12 11:10:00+00:00,304.0,298.0,9.21,10.15,,47.59359,-54.27349
2018-05-12 11:20:00+00:00,283.0,286.0,7.76,8.27,,47.59359,-54.27349
2018-05-12 11:30:00+00:00,294.0,293.0,6.52,7.06,,47.59359,-54.27349
2018-05-12 11:40:00+00:00,296.0,302.0,5.85,6.6,,47.59359,-54.27349
2018-05-12 11:50:00+00:00,288.0,289.0,7.76,8.96,,47.59359,-54.27349
2018-05-12 12:00:00+00:00,302.0,293.0,6.23,7.65,,47.59359,-54.27349
2018-05-12 12:10:00+00:00,294.0,297.0,6.35,7.41,,47.59359,-54.27349
2018-05-12 12:20:00+00:00,281.0,284.0,6.79,7.44,,47.59359,-54.27349
2018-05-12 12:30:00+00:00,300.0,293.0,6.83,8.19,,47.59359,-54.27349
2018-05-12 12:40:00+00:00,283.0,285.0,6.46,7.82,,47.59359,-54.27349
2018-05-12 12:50:00+00:00,293.0,296.0,6.0,7.01,,47.59359,-54.27349
2018-05-12 13:00:00+00:00,279.0,277.0,5.1,5.44,,47.59359,-54.27349
2018-05-12 13:10:00+00:00,282.0,280.0,5.97,6.82,,47.59359,-54.27349
2018-05-12 13:20:00+00:00,279.0,285.0,8.89,10.3,,47.59359,-54.27349
2018-05-12 13:30:00+00:00,286.0,290.0,8.86,9.99,,47.59359,-54.27349
2018-05-12 13:40:00+00:00,269.0,272.0,8.08,9.22,,47.59359,-54.27349
2018-05-12 13:50:00+00:00,279.0,276.0,8.69,9.72,,47.59359,-54.27349
2018-05-12 14:00:00+00:00,279.0,280.0,8.1,9.27,,47.59359,-54.27349
2018-05-12 14:10:00+00:00,290.0,292.0,8.85,10.02,,47.59359,-54.27349
2018-05-12 14:20:00+00:00,299.0,300.0,8.23,9.44,,47.59359,-54.27349
2018-05-12 14:30:00+00:00,295.0,294.0,8.8,9.53,,47.59359,-54.27349
2018-05-12 14:40:00+00:00,288.0,284.0,8.94,10.14,,47.59359,-54.27349
2018-05-12 14:50:00+00:00,290.0,290.0,9.58,11.56,,47.59359,-54.27349
2018-05-12 15:00:00+00:00,278.0,271.0,7.05,9.37,,47.59359,-54.27349
2018-05-12 15:10:00+00:00,287.0,289.0,7.97,9.56,,47.59359,-54.27349
2018-05-12 15:20:00+00:00,274.0,268.0,9.71,10.88,,47.59359,-54.27349
2018-05-12 15:30:00+00:00,277.0,280.0,10.43,11.77,,47.59359,-54.27349
2018-05-12 15:40:00+00:00,289.0,288.0,10.01,11.21,,47.59359,-54.27349
2018-05-12 15:50:00+00:00,293.0,292.0,9.3,10.53,,47.59359,-54.27349
2018-05-12 16:00:00+00:00,291.0,296.0,7.68,8.91,,47.59359,-54.27349
2018-05-12 16:10:00+00:00,288.0,296.0,9.34,11.68,,47.59359,-54.27349
2018-05-12 16:20:00+00:00,302.0,300.0,9.88,10.82,,47.59359,-54.27349
2018-05-12 16:30:00+00:00,291.0,289.0,9.04,10.01,,47.59359,-54.27349
2018-05-12 16:40:00+00:00,292.0,295.0,9.47,11.18,,47.59359,-54.27349
2018-05-12 16:50:00+00:00,301.0,304.0,9.41,10.51,,47.59359,-54.27349
2018-05-12 17:00:00+00:00,284.0,285.0,8.14,9.23,,47.59359,-54.27349
2018-05-12 17:10:00+00:00,296.0,294.0,7.93,9.22,,47.59359,-54.27349
2018-05-12 17:20:00+00:00,287.0,290.0,8.64,10.83,,47.59359,-54.27349
2018-05-12 17:30:00+00:00,283.0,287.0,7.32,8.65,,47.59359,-54.27349
2018-05-12 17:40:00+00:00,293.0,300.0,7.55,8.71,,47.59359,-54.27349
2018-05-12 17:50:00+00:00,297.0,296.0,9.65,11.0,,47.59359,-54.27349
2018-05-12 18:00:00+00:00,297.0,300.0,8.94,10.34,,47.59359,-54.27349
2018-05-12 18:10:00+00:00,284.0,286.0,8.63,9.54,,47.59359,-54.27349
2018-05-12 18:20:00+00:00,289.0,293.0,9.4,10.25,,47.59359,-54.27349
2018-05-12 18:30:00+00:00,300.0,303.0,11.71,12.95,,47.59359,-54.27349
2018-05-12 18:40:00+00:00,278.0,282.0,8.98,10.03,,47.59359,-54.27349
2018-05-12 18:50:00+00:00,275.0,277.0,9.57,10.87,,47.59359,-54.27349
2018-05-12 19:00:00+00:00,274.0,276.0,9.07,9.85,,47.59359,-54.27349
2018-05-12 19:10:00+00:00,283.0,285.0,10.88,12.24,,47.59359,-54.27349
2018-05-12 19:20:00+00:00,294.0,298.0,12.04,13.33,,47.59359,-54.27349
2018-05-12 19:30:00+00:00,285.0,285.0,9.33,10.8,,47.59359,-54.27349
2018-05-12 19:40:00+00:00,288.0,290.0,10.06,11.16,,47.59359,-54.27349
2018-05-12 19:50:00+00:00,284.0,286.0,9.54,10.87,,47.59359,-54.27349
2018-05-12 20:00:00+00:00,288.0,288.0,10.71,11.92,,47.59359,-54.27349
2018-05-12 20:10:00+00:00,290.0,300.0,12.94,14.68,,47.59359,-54.27349
2018-05-12 20:20:00+00:00,295.0,302.0,12.85,15.17,,47.59359,-54.27349
2018-05-12 20:30:00+00:00,292.0,293.0,12.49,14.34,,47.59359,-54.27349
2018-05-12 20:40:00+00:00,280.0,284.0,10.24,11.52,,47.59359,-54.27349
2018-05-12 20:50:00+00:00,276.0,277.0,8.54,9.37,,47.59359,-54.27349
2018-05-12 21:00:00+00:00,284.0,283.0,9.28,10.6,,47.59359,-54.27349
2018-05-12 21:10:00+00:00,270.0,276.0,7.96,9.46,,47.59359,-54.27349
2018-05-12 21:20:00+00:00,281.0,285.0,10.65,11.54,,47.59359,-54.27349
2018-05-12 21:30:00+00:00,284.0,288.0,11.51,12.89,,47.59359,-54.27349
2018-05-12 21:40:00+00:00,276.0,289.0,9.37,11.12,,47.59359,-54.27349
2018-05-12 21:50:00+00:00,272.0,278.0,8.46,10.08,,47.59359,-54.27349
2018-05-12 22:00:00+00:00,274.0,269.0,8.18,8.97,,47.59359,-54.27349
2018-05-12 22:10:00+00:00,271.0,272.0,10.15,10.81,,47.59359,-54.27349
2018-05-12 22:20:00+00:00,279.0,276.0,9.74,11.35,,47.59359,-54.27349
2018-05-12 22:30:00+00:00,267.0,260.0,8.52,9.43,,47.59359,-54.27349
2018-05-12 22:40:00+00:00,257.0,255.0,8.82,10.05,,47.59359,-54.27349
2018-05-12 22:50:00+00:00,259.0,265.0,8.33,9.28,,47.59359,-54.27349
2018-05-12 23:00:00+00:00,271.0,267.0,8.86,9.81,,47.59359,-54.27349
2018-05-12 23:10:00+00:00,266.0,266.0,8.37,10.48,,47.59359,-54.27349
2018-05-12 23:20:00+00:00,264.0,262.0,9.48,10.65,,47.59359,-54.27349
2018-05-12 23:30:00+00:00,263.0,262.0,10.34,10.94,,47.59359,-54.27349
2018-05-12 23:40:00+00:00,271.0,268.0,9.87,10.61,,47.59359,-54.27349
2018-05-12 23:50:00+00:00,277.0,274.0,9.46,10.7,,47.59359,-54.27349
